GLO1001 SBRJ-SBSP

Flight info

Callsign GLO1001
Flight time 0h 43m
Altitude 28000
Route NAXOP UZ45 IBDAL
Aircraft B738/M-SDE2E3FGHIRWXY/LB1

Departure

Time 2026-05-07 09:18
Airport Santos Dumont Airport (SBRJ)

Arrival

Time 2026-05-07 10:02
Airport Congonhas–Deputado Freitas Nobre Airport (SBSP)
Time Latitude Longitude Altitude Speed Heading
2026-05-07 08:58 -22.91310 -43.16580 28 ft 0 kts 265°
2026-05-07 09:10 -22.91310 -43.16573 28 ft 2 kts 265°
2026-05-07 09:11 -22.91309 -43.16556 28 ft 2 kts 265°
2026-05-07 09:11 -22.91307 -43.16540 28 ft 2 kts 265°
2026-05-07 09:11 -22.91311 -43.16524 28 ft 2 kts 307°
2026-05-07 09:11 -22.91323 -43.16513 29 ft 2 kts 340°
2026-05-07 09:12 -22.91331 -43.16511 29 ft 1 kts 359°
2026-05-07 09:12 -22.91336 -43.16511 29 ft 0 kts 356°
2026-05-07 09:14 -22.91332 -43.16512 29 ft 6 kts 356°
2026-05-07 09:14 -22.91204 -43.16522 26 ft 26 kts 354°
2026-05-07 09:14 -22.91063 -43.16545 27 ft 16 kts 347°
2026-05-07 09:14 -22.90957 -43.16558 27 ft 14 kts 357°
2026-05-07 09:15 -22.90841 -43.16566 27 ft 21 kts 355°
2026-05-07 09:15 -22.90667 -43.16573 27 ft 28 kts 358°
2026-05-07 09:15 -22.90533 -43.16584 27 ft 10 kts 358°
2026-05-07 09:15 -22.90495 -43.16542 27 ft 7 kts 75°
2026-05-07 09:16 -22.90489 -43.16489 26 ft 6 kts 87°
2026-05-07 09:16 -22.90486 -43.16437 26 ft 6 kts 86°
2026-05-07 09:16 -22.90483 -43.16382 24 ft 8 kts 86°
2026-05-07 09:16 -22.90468 -43.16352 23 ft 3 kts 25°
2026-05-07 09:17 -22.90458 -43.16341 23 ft 1 kts 81°
2026-05-07 09:17 -22.90461 -43.16331 23 ft 0 kts 139°
2026-05-07 09:17 -22.90467 -43.16331 23 ft 0 kts 177°
2026-05-07 09:18 -22.90672 -43.16320 23 ft 79 kts 176°
2026-05-07 09:18 -22.91553 -43.16261 62 ft 164 kts 178°
2026-05-07 09:18 -22.92717 -43.16170 952 ft 174 kts 171°
2026-05-07 09:18 -22.93805 -43.15606 1958 ft 182 kts 139°
2026-05-07 09:19 -22.94590 -43.14378 2713 ft 213 kts 118°
2026-05-07 09:19 -22.95470 -43.12968 3668 ft 235 kts 135°
2026-05-07 09:19 -22.96709 -43.11800 5002 ft 240 kts 141°
2026-05-07 09:19 -22.98136 -43.10792 6285 ft 247 kts 161°
2026-05-07 09:20 -22.99794 -43.10510 7583 ft 247 kts 180°
2026-05-07 09:20 -23.01589 -43.10769 8126 ft 279 kts 200°
2026-05-07 09:20 -23.03358 -43.11920 8064 ft 306 kts 220°
2026-05-07 09:20 -23.05017 -43.13461 8219 ft 318 kts 221°
2026-05-07 09:21 -23.06682 -43.15002 9066 ft 303 kts 220°
2026-05-07 09:21 -23.08244 -43.16397 9928 ft 289 kts 220°
2026-05-07 09:21 -23.09796 -43.17762 10805 ft 283 kts 219°
2026-05-07 09:21 -23.11335 -43.19108 11690 ft 288 kts 219°
2026-05-07 09:22 -23.12889 -43.20464 12535 ft 289 kts 220°
2026-05-07 09:22 -23.14483 -43.21853 13204 ft 300 kts 220°
2026-05-07 09:22 -23.16129 -43.23287 14054 ft 305 kts 220°
2026-05-07 09:22 -23.17806 -43.24749 14903 ft 309 kts 220°
2026-05-07 09:23 -23.19458 -43.26188 15248 ft 303 kts 220°
2026-05-07 09:23 -23.21088 -43.27612 15405 ft 305 kts 220°
2026-05-07 09:23 -23.22742 -43.29057 15737 ft 309 kts 220°
2026-05-07 09:23 -23.24435 -43.30536 16007 ft 313 kts 220°
2026-05-07 09:24 -23.26131 -43.32016 16371 ft 314 kts 220°
2026-05-07 09:24 -23.27837 -43.33506 16705 ft 316 kts 220°
2026-05-07 09:24 -23.29557 -43.35009 17049 ft 317 kts 220°
2026-05-07 09:24 -23.31274 -43.36534 17377 ft 318 kts 224°
2026-05-07 09:25 -23.32788 -43.38280 17691 ft 317 kts 234°
2026-05-07 09:25 -23.33896 -43.40354 18011 ft 316 kts 249°
2026-05-07 09:25 -23.34570 -43.42631 18346 ft 315 kts 256°
2026-05-07 09:25 -23.35114 -43.44952 18653 ft 317 kts 257°
2026-05-07 09:26 -23.35650 -43.47282 18948 ft 318 kts 257°
2026-05-07 09:26 -23.36194 -43.49631 19242 ft 319 kts 257°
2026-05-07 09:26 -23.36743 -43.51985 19535 ft 320 kts 257°
2026-05-07 09:26 -23.37296 -43.54350 19818 ft 322 kts 257°
2026-05-07 09:27 -23.37852 -43.56731 20100 ft 323 kts 257°
2026-05-07 09:27 -23.38409 -43.59112 20376 ft 324 kts 257°
2026-05-07 09:27 -23.39526 -43.63898 20908 ft 326 kts 257°
2026-05-07 09:28 -23.40089 -43.66310 21178 ft 327 kts 257°
2026-05-07 09:28 -23.40650 -43.68717 21432 ft 328 kts 257°
2026-05-07 09:28 -23.41214 -43.71140 21698 ft 329 kts 257°
2026-05-07 09:28 -23.41778 -43.73562 21949 ft 330 kts 257°
2026-05-07 09:29 -23.42343 -43.75992 22187 ft 331 kts 257°
2026-05-07 09:29 -23.42911 -43.78435 22423 ft 332 kts 257°
2026-05-07 09:29 -23.43482 -43.80893 22659 ft 333 kts 257°
2026-05-07 09:29 -23.44054 -43.83355 22885 ft 334 kts 257°
2026-05-07 09:30 -23.44627 -43.85823 23111 ft 335 kts 257°
2026-05-07 09:30 -23.45200 -43.88296 23327 ft 336 kts 257°
2026-05-07 09:30 -23.45775 -43.90776 23545 ft 337 kts 257°
2026-05-07 09:30 -23.46352 -43.93270 23757 ft 338 kts 257°
2026-05-07 09:31 -23.46928 -43.95759 23965 ft 339 kts 257°
2026-05-07 09:31 -23.47505 -43.98258 24166 ft 339 kts 257°
2026-05-07 09:31 -23.48083 -44.00759 24368 ft 340 kts 257°
2026-05-07 09:31 -23.48662 -44.03268 24561 ft 341 kts 257°
2026-05-07 09:32 -23.49241 -44.05779 24749 ft 342 kts 257°
2026-05-07 09:32 -23.49826 -44.08320 24939 ft 343 kts 257°
2026-05-07 09:32 -23.50411 -44.10857 25126 ft 344 kts 257°
2026-05-07 09:32 -23.50994 -44.13394 25307 ft 345 kts 257°
2026-05-07 09:33 -23.51578 -44.15934 25481 ft 345 kts 257°
2026-05-07 09:33 -23.52162 -44.18473 25651 ft 346 kts 257°
2026-05-07 09:33 -23.52751 -44.21037 25820 ft 347 kts 257°
2026-05-07 09:33 -23.53336 -44.23585 25982 ft 348 kts 257°
2026-05-07 09:34 -23.53927 -44.26165 26146 ft 348 kts 257°
2026-05-07 09:34 -23.54517 -44.28737 26306 ft 349 kts 257°
2026-05-07 09:34 -23.55108 -44.31319 26460 ft 350 kts 257°
2026-05-07 09:34 -23.55698 -44.33896 26611 ft 351 kts 257°
2026-05-07 09:35 -23.56292 -44.36495 26762 ft 351 kts 257°
2026-05-07 09:35 -23.56887 -44.39100 26912 ft 352 kts 258°
2026-05-07 09:35 -23.57483 -44.41712 27052 ft 353 kts 258°
2026-05-07 09:35 -23.58079 -44.44328 27199 ft 353 kts 258°
2026-05-07 09:36 -23.58675 -44.46940 27336 ft 354 kts 258°
2026-05-07 09:36 -23.59269 -44.49551 27472 ft 355 kts 258°
2026-05-07 09:36 -23.59865 -44.52170 27605 ft 355 kts 258°
2026-05-07 09:36 -23.60462 -44.54796 27735 ft 356 kts 258°
2026-05-07 09:37 -23.61059 -44.57426 27864 ft 356 kts 258°
2026-05-07 09:37 -23.61658 -44.60065 27986 ft 357 kts 258°
2026-05-07 09:37 -23.62256 -44.62704 28102 ft 358 kts 258°
2026-05-07 09:38 -23.63458 -44.68021 28106 ft 363 kts 258°
2026-05-07 09:38 -23.64675 -44.73410 28119 ft 366 kts 258°
2026-05-07 09:39 -23.65902 -44.78853 28131 ft 370 kts 258°
2026-05-07 09:39 -23.67138 -44.84343 28144 ft 372 kts 258°
2026-05-07 09:40 -23.68384 -44.89882 28154 ft 375 kts 258°
2026-05-07 09:40 -23.69653 -44.95523 27598 ft 388 kts 258°
2026-05-07 09:40 -23.70292 -44.98364 27099 ft 374 kts 258°
2026-05-07 09:41 -23.70902 -45.01068 26638 ft 358 kts 259°
2026-05-07 09:41 -23.71495 -45.03712 25657 ft 358 kts 259°
2026-05-07 09:41 -23.72081 -45.06335 24804 ft 354 kts 259°
2026-05-07 09:41 -23.72661 -45.08926 24097 ft 345 kts 259°
2026-05-07 09:42 -23.73223 -45.11438 23703 ft 337 kts 259°
2026-05-07 09:42 -23.73786 -45.13977 23334 ft 348 kts 259°
2026-05-07 09:42 -23.74360 -45.16578 22915 ft 352 kts 259°
2026-05-07 09:42 -23.74936 -45.19168 22501 ft 346 kts 259°
2026-05-07 09:43 -23.75502 -45.21712 22112 ft 341 kts 259°
2026-05-07 09:43 -23.76056 -45.24207 21730 ft 335 kts 259°
2026-05-07 09:43 -23.76602 -45.26676 21356 ft 334 kts 259°
2026-05-07 09:43 -23.77152 -45.29177 20975 ft 339 kts 259°
2026-05-07 09:44 -23.77702 -45.31669 20574 ft 334 kts 259°
2026-05-07 09:44 -23.78244 -45.34122 20200 ft 329 kts 259°
2026-05-07 09:44 -23.78778 -45.36543 19835 ft 329 kts 259°
2026-05-07 09:44 -23.79304 -45.39007 19456 ft 331 kts 261°
2026-05-07 09:45 -23.79638 -45.41484 19161 ft 324 kts 267°
2026-05-07 09:45 -23.79823 -45.43946 19164 ft 326 kts 268°
2026-05-07 09:45 -23.79977 -45.46455 19152 ft 331 kts 269°
2026-05-07 09:45 -23.80123 -45.48967 19152 ft 329 kts 269°
2026-05-07 09:46 -23.80263 -45.51472 19153 ft 328 kts 269°
2026-05-07 09:46 -23.80398 -45.53983 19156 ft 330 kts 269°
2026-05-07 09:46 -23.80530 -45.56496 19154 ft 330 kts 269°
2026-05-07 09:46 -23.80661 -45.59003 19154 ft 329 kts 269°
2026-05-07 09:47 -23.80790 -45.61508 19155 ft 328 kts 269°
2026-05-07 09:47 -23.80918 -45.64009 19153 ft 328 kts 269°
2026-05-07 09:47 -23.81044 -45.66477 19020 ft 318 kts 269°
2026-05-07 09:47 -23.81167 -45.68922 18641 ft 324 kts 270°
2026-05-07 09:48 -23.81290 -45.71384 18265 ft 322 kts 269°
2026-05-07 09:48 -23.81413 -45.73817 17898 ft 317 kts 269°
2026-05-07 09:48 -23.81534 -45.76218 17542 ft 316 kts 269°
2026-05-07 09:48 -23.81655 -45.78654 17188 ft 321 kts 269°
2026-05-07 09:49 -23.81776 -45.81073 16816 ft 316 kts 269°
2026-05-07 09:49 -23.81895 -45.83461 16458 ft 311 kts 269°
2026-05-07 09:49 -23.82012 -45.85826 16119 ft 314 kts 269°
2026-05-07 09:49 -23.82131 -45.88245 15752 ft 314 kts 269°
2026-05-07 09:50 -23.82249 -45.90621 15391 ft 309 kts 269°
2026-05-07 09:50 -23.82364 -45.92954 15053 ft 306 kts 269°
2026-05-07 09:50 -23.82477 -45.95284 14719 ft 311 kts 269°
2026-05-07 09:50 -23.82592 -45.97632 14359 ft 307 kts 269°
2026-05-07 09:51 -23.82704 -45.99933 14021 ft 302 kts 269°
2026-05-07 09:51 -23.82816 -46.02248 13691 ft 306 kts 269°
2026-05-07 09:51 -23.82929 -46.04582 13343 ft 305 kts 269°
2026-05-07 09:51 -23.83040 -46.06879 12997 ft 301 kts 269°
2026-05-07 09:52 -23.83149 -46.09146 12664 ft 299 kts 269°
2026-05-07 09:52 -23.83259 -46.11454 12334 ft 304 kts 269°
2026-05-07 09:52 -23.83368 -46.13743 11982 ft 300 kts 269°
2026-05-07 09:52 -23.83477 -46.16004 11648 ft 295 kts 269°
2026-05-07 09:53 -23.83585 -46.18264 11326 ft 300 kts 269°
2026-05-07 09:53 -23.83696 -46.20548 10977 ft 298 kts 268°
2026-05-07 09:53 -23.83843 -46.22791 10641 ft 294 kts 268°
2026-05-07 09:53 -23.84005 -46.25041 10319 ft 298 kts 268°
2026-05-07 09:54 -23.84166 -46.27310 9976 ft 297 kts 268°
2026-05-07 09:54 -23.84325 -46.29548 9627 ft 293 kts 268°
2026-05-07 09:54 -23.84479 -46.31759 9292 ft 289 kts 268°
2026-05-07 09:54 -23.84632 -46.33938 8958 ft 286 kts 268°
2026-05-07 09:55 -23.84782 -46.36101 8638 ft 282 kts 268°
2026-05-07 09:55 -23.84930 -46.38223 8500 ft 271 kts 268°
2026-05-07 09:55 -23.85071 -46.40244 8413 ft 261 kts 268°
2026-05-07 09:55 -23.85207 -46.42209 8217 ft 255 kts 268°
2026-05-07 09:56 -23.85317 -46.44128 8040 ft 249 kts 273°
2026-05-07 09:56 -23.84964 -46.45935 7856 ft 239 kts 299°
2026-05-07 09:56 -23.84038 -46.47410 7616 ft 235 kts 309°
2026-05-07 09:56 -23.83036 -46.48819 7355 ft 235 kts 309°
2026-05-07 09:57 -23.82044 -46.50234 7119 ft 233 kts 309°
2026-05-07 09:57 -23.81081 -46.51628 6894 ft 230 kts 308°
2026-05-07 09:57 -23.80172 -46.52955 6645 ft 223 kts 308°
2026-05-07 09:57 -23.79148 -46.54246 6271 ft 219 kts 322°
2026-05-07 09:58 -23.77900 -46.55144 6053 ft 205 kts 332°
2026-05-07 09:58 -23.76706 -46.55910 5763 ft 198 kts 329°
2026-05-07 09:58 -23.75680 -46.56621 5513 ft 193 kts 329°
2026-05-07 09:58 -23.74555 -46.57403 5262 ft 185 kts 329°
2026-05-07 09:59 -23.73437 -46.58179 4986 ft 180 kts 329°
2026-05-07 09:59 -23.72391 -46.58905 4737 ft 175 kts 329°
2026-05-07 09:59 -23.71369 -46.59614 4502 ft 172 kts 329°
2026-05-07 09:59 -23.70359 -46.60315 4273 ft 172 kts 329°
2026-05-07 10:00 -23.69371 -46.61001 4048 ft 168 kts 329°
2026-05-07 10:00 -23.68409 -46.61668 3840 ft 157 kts 329°
2026-05-07 10:00 -23.67517 -46.62285 3616 ft 148 kts 329°
2026-05-07 10:00 -23.66672 -46.62865 3411 ft 140 kts 329°
2026-05-07 10:01 -23.65842 -46.63435 3244 ft 140 kts 329°
2026-05-07 10:01 -23.65027 -46.63991 3052 ft 138 kts 329°
2026-05-07 10:01 -23.64217 -46.64561 2873 ft 137 kts 327°
2026-05-07 10:01 -23.63468 -46.65087 2687 ft 134 kts 328°
2026-05-07 10:02 -23.62794 -46.65552 2629 ft 80 kts 327°
2026-05-07 10:02 -23.62548 -46.65724 2622 ft 7 kts 327°
2026-05-07 10:02 -23.62452 -46.65790 2621 ft 26 kts 329°
2026-05-07 10:02 -23.62290 -46.65906 2621 ft 28 kts 323°
2026-05-07 10:03 -23.62197 -46.66000 2621 ft 13 kts 281°
2026-05-07 10:03 -23.62262 -46.66039 2622 ft 14 kts 153°
2026-05-07 10:03 -23.62360 -46.65969 2621 ft 18 kts 148°
2026-05-07 10:03 -23.62466 -46.65895 2621 ft 16 kts 147°
2026-05-07 10:04 -23.62560 -46.65828 2621 ft 15 kts 147°
2026-05-07 10:04 -23.62644 -46.65770 2622 ft 13 kts 147°
2026-05-07 10:04 -23.62687 -46.65757 2623 ft 2 kts 219°
2026-05-07 10:04 -23.62694 -46.65769 2623 ft 1 kts 238°
2026-05-07 10:05 -23.62713 -46.65801 2623 ft 4 kts 237°
2026-05-07 10:05 -23.62721 -46.65816 2623 ft 0 kts 238°